This demonstration page uses our WeatherBlox Daily Observations layout. Learn more.

Left ArrowRight Arrow

39.01783, -85.05884

Hourly Observations for February 8, 2016

Temp ( °F °C ) Dew Point ( °F °C ) Humidity (%) Winds ( mph kmh ) Pressure ( in mb ) Visibility ( mi km ) Precip ( " mm )
12:52 am 00:52 Cloudy 45 7.2 23 -5 42 42 SW 5 7 29.74 1007 10 16 0.00 0.00
1:52 am 01:52 Cloudy 43 6.1 30 -1.1 60 60 WNW 9 15 29.72 1007 10 16 0.00 0.00
2:52 am 02:52 Cloudy with Light Rain 41 5 34 1.1 76 76 NW 12 19 29.70 1006 10 16 0.01 0.25
3:36 am 03:36 Cloudy with Light Rain 39 4 34 1 81 81 W 6 9 29.74 1007 10 16 0.00 0.00
3:52 am 03:52 Cloudy with Light Rain 39 3.9 34 1.1 82 82 W 12 19 29.70 1006 7 11 0.00 0.03
4:36 am 04:36 Cloudy with Light Rain 37 3 36 2 93 93 Calm 29.71 1006 8 13 0.02 0.51
4:52 am 04:52 Cloudy with Light Rain 38 3.3 33 0.6 83 83 Calm 29.68 1005 10 16 0.03 0.76
5:52 am 05:52 Cloudy 37 2.8 34 1.1 89 89 SSW 6 9 29.68 1005 10 16 0.00 0.03
6:08 am 06:08 Cloudy with Light Rain 37 3 34 1 87 87 SSW 7 11 29.71 1006 10 16 0.00 0.00
6:19 am 06:19 Cloudy with Light Rain 37 3 34 1 87 87 SSW 5 7 29.71 1006 7 11 0.00 0.03
6:43 am 06:43 Cloudy with Light Rain 36 2 34 1 93 93 SW 8 13 29.71 1006 6 10 0.01 0.25
6:52 am 06:52 Cloudy with Light Rain 36 2.2 34 1.1 93 93 WSW 9 15 29.67 1005 7 11 0.01 0.25
7:35 am 07:35 Cloudy with Light Rain 36 2 34 1 93 93 WSW 8 13 29.68 1005 8 13 0.03 0.76
7:52 am 07:52 Cloudy with Light Rain 35 1.7 33 0.6 93 93 W 8 13 29.67 1005 6 10 0.04 1.02
7:58 am 07:58 Cloudy with Light Rain 36 2 34 1 93 93 W 9 15 29.68 1005 3 5 0.00 0.00
9:03 am 09:03 Cloudy 36 2 34 1 93 93 WNW 9 15 29.68 1005 8 13 0.00 0.03
9:52 am 09:52 Cloudy 36 2.2 34 1.1 93 93 W 9 15 29.66 1004 10 16 0.00 0.03
10:05 am 10:05 Cloudy 37 3 34 1 87 87 W 12 19 29.68 1005 10 16 0.00 0.00
10:52 am 10:52 Cloudy 37 2.8 33 0.6 86 86 W 12 19 29.67 1005 10 16 0.00 0.00
11:36 am 11:36 Cloudy 37 3 32 0 81 81 W 8 13 29.68 1005 10 16 0.00 0.00
11:52 am 11:52 Cloudy 37 2.8 32 0 82 82 WNW 7 11 29.66 1004 10 16 0.00 0.00
12:52 pm 12:52 Cloudy 39 3.9 32 0 76 76 NW 5 7 29.63 1003 10 16 0.00 0.00
1:21 pm 13:21 Cloudy with Light Snow 36 2 32 0 87 87 WSW 12 19 29.65 1004 1 1 0.00 0.03
1:27 pm 13:27 Cloudy with Snow 34 1 30 -1 87 87 WSW 8 13 29.65 1004 0 0 0.01 0.25
1:52 pm 13:52 Mostly Cloudy with Light Snow 33 0.6 32 0 96 96 WSW 8 13 29.63 1003 1 1 0.07 1.78
2:29 pm 14:29 Cloudy with Light Snow 34 1 32 0 93 93 W 12 19 29.65 1004 2 3 0.03 0.76
2:47 pm 14:47 Cloudy with Light Snow 34 1 32 0 93 93 W 10 17 29.65 1004 1 1 0.03 0.76
2:52 pm 14:52 Cloudy with Light Snow 33 0.6 32 0 96 96 WNW 10 17 29.64 1004 1 1 0.03 0.76
3:01 pm 15:01 Cloudy with Light Snow 34 1 32 0 93 93 WNW 8 13 29.65 1004 2 3 0.01 0.25
3:11 pm 15:11 Cloudy with Mist and Fog 34 1 32 0 93 93 NW 8 13 29.65 1004 5 8 0.01 0.25
3:19 pm 15:19 Cloudy 34 1 32 0 93 93 NW 7 11 29.65 1004 7 11 0.01 0.25
3:32 pm 15:32 Cloudy 36 2 34 1 93 93 W 3 6 29.65 1004 8 13 0.00 0.00
3:52 pm 15:52 Cloudy 36 2.2 33 0.6 89 89 SW 7 11 29.64 1004 8 13 0.01 0.25
4:52 pm 16:52 Cloudy with Light Snow 34 1.1 31 -0.6 89 89 WSW 12 19 29.66 1005 3 5 0.00 0.03
4:54 pm 16:54 Cloudy with Light Snow 34 1 30 -1 87 87 WSW 14 22 29.68 1005 1 1 0.00 0.00
5:12 pm 17:12 Cloudy with Light Snow 32 0 30 -1 93 93 W 12 19 29.68 1005 1 1 0.01 0.25
5:19 pm 17:19 Cloudy with Light Snow 34 1 30 -1 87 87 W 8 13 29.68 1005 1 1 0.01 0.25
5:52 pm 17:52 Cloudy with Light Snow 33 0.6 31 -0.6 92 92 W 9 15 29.67 1005 1 1 0.02 0.51
6:21 pm 18:21 Cloudy with Light Snow 32 0 30 -1 93 93 WNW 18 30 29.71 1006 1 1 0.00 0.03
6:52 pm 18:52 Windy with Snow Likely 31 -0.6 28 -2.2 89 89 W 23 37 29.70 1006 1 1 0.00 0.03
6:57 pm 18:57 Windy with Snow Likely 30 -1 28 -2 93 93 WNW 20 31 29.74 1007 2 3 0.00 0.03
7:15 pm 19:15 Cloudy with Light Snow 30 -1 27 -3 86 86 WNW 15 24 29.74 1007 2 3 0.00 0.03
7:39 pm 19:39 Cloudy with Light Snow 28 -2 27 -3 93 93 W 16 26 29.74 1007 1 2 0.00 0.03
7:52 pm 19:52 Cloudy with Light Snow 28 -2.2 26 -3.3 92 92 W 17 28 29.73 1007 1 2 0.01 0.25
8:10 pm 20:10 Cloudy with Light Snow 28 -2 25 -4 86 86 WNW 18 30 29.74 1007 2 2 0.00 0.00
8:40 pm 20:40 Cloudy with Light Snow 27 -3 25 -4 93 93 W 13 20 29.80 1009 2 3 0.00 0.03
8:52 pm 20:52 Cloudy with Light Snow 26 -3.3 24 -4.4 92 92 W 14 22 29.75 1007 2 3 0.01 0.25
9:15 pm 21:15 Cloudy with Light Snow 27 -3 21 -6 80 80 W 14 22 29.80 1009 3 5 0.00 0.03
9:52 pm 21:52 Cloudy with Light Snow 26 -3.3 22 -5.6 84 84 W 17 28 29.75 1008 3 5 0.00 0.03
9:58 pm 21:58 Cloudy with Light Snow 27 -3 21 -6 80 80 W 15 24 29.80 1009 2 3 0.00 0.03
10:36 pm 22:36 Cloudy with Light Snow 25 -4 19 -7 80 80 W 16 26 29.80 1009 1 1 0.00 0.00
10:52 pm 22:52 Cloudy with Light Snow 23 -5 20 -6.7 88 88 W 17 28 29.75 1008 1 1 0.01 0.25
11:19 pm 23:19 Cloudy with Light Snow 23 -5 19 -7 86 86 W 17 28 29.80 1009 2 3 0.00 0.03
11:52 pm 23:52 Cloudy with Light Snow 23 -5 19 -7.2 85 85 W 13 20 29.75 1007 2 3 0.00 0.03

Powered by AerisWeather